Flag for Jersey

Past Weather in 49°10'36.9"N, 2°06'53.5"W, Jersey — Yesterday and Last 2 Weeks

Currently: 57 °F. Drizzle. Fog. (Weather station: Jersey Airport, Jersey). See more current weather

Past Weather in 49°10'36.9"N, 2°06'53.5"W — Graph

°F

49°10'36.9"N, 2°06'53.5"W Temperature Yesterday

Maximum temperature yesterday: 59 °F (at 12:50 pm)
Minimum temperature yesterday: 50 °F (at 1:50 am)
Average temperature yesterday: 55 °F

High & Low Weather Summary for the Past Weeks

 TemperatureHumidityPressure
High66 °F (May 17, 5:50 pm)100% (May 13, 1:50 pm)30.12 "Hg (May 13, 1:50 pm)
Low46 °F (May 25, 2:20 am)48% (May 24, 6:20 pm)29.47 "Hg (May 14, 4:50 am)
Average57 °F84%29.86 "Hg
* Reported May 13 7:20 am — May 28 7:20 am, 49°10'36.9"N, 2°06'53.5"W. Weather by CustomWeather, © 2024

Note: Actual official high and low records may vary slightly from our data, if they occured in-between our weather recording intervals... More about our weather records

49°10'36.9"N, 2°06'53.5"W Weather History for the Previous 24 Hours

Scroll right to see more
 ConditionsComfort  
Time TempWeatherWind HumidityBarometerVisibility
7:20 am
Tue, May 28
57 °FDrizzle. Fog.20 mph100%30.01 "Hg0 mi
6:50 am57 °FDrizzle. Fog.20 mph100%30.01 "Hg1 mi
6:20 am57 °FDrizzle. Fog.20 mph100%30.01 "Hg1 mi
5:50 am57 °FDrizzle. Fog.17 mph100%30.01 "Hg0 mi
5:20 am55 °FLight rain. Low clouds.17 mph100%30.01 "Hg1 mi
4:50 am55 °FDrizzle. Low clouds.17 mph100%29.98 "Hg4 mi
4:20 am55 °FRain. Low clouds.15 mph100%29.98 "Hg2 mi
3:50 am55 °FDrizzle. Low clouds.14 mph100%29.98 "Hg3 mi
3:20 am55 °FDrizzle. Low clouds.13 mph100%30.01 "Hg2 mi
2:50 am55 °FRain. Low clouds.13 mph94%30.01 "Hg3 mi
2:20 am54 °FLow clouds.18 mph100%30.01 "HgN/A
1:50 am54 °FDrizzle. Low clouds.20 mph100%30.01 "Hg3 mi
1:20 am54 °FRain. Low clouds.16 mph100%30.01 "Hg3 mi
12:50 am54 °FDrizzle. Low clouds.16 mph94%30.04 "Hg3 mi
12:20 am54 °FDrizzle. Mostly cloudy.13 mph94%30.04 "Hg3 mi
11:50 pm
Mon, May 27
54 °FDrizzle. Mostly cloudy.14 mph94%30.04 "Hg3 mi
11:20 pm54 °FPartly cloudy.12 mph94%30.07 "Hg4 mi
10:50 pm55 °FPartly cloudy.12 mph88%30.07 "HgN/A
10:20 pm55 °FRain. Partly cloudy.8 mph88%30.07 "HgN/A
9:50 pm55 °FLight rain. Passing clouds.8 mph88%30.07 "HgN/A
9:20 pm55 °FScattered showers. Passing clouds.7 mph88%30.07 "HgN/A
8:50 pm55 °FPassing clouds.8 mph88%30.07 "HgN/A
7:50 pm55 °FScattered clouds.9 mph82%30.07 "HgN/A
7:20 pm57 °FScattered clouds.10 mph77%30.07 "HgN/A
6:50 pm57 °FSunny.12 mph77%30.07 "Hg10 mi
6:20 pm57 °FSunny.13 mph77%30.07 "Hg10 mi
5:50 pm57 °FSunny.14 mph77%30.07 "Hg10 mi
5:20 pm59 °FPassing clouds.13 mph68%30.07 "HgN/A
4:50 pm59 °FPassing clouds.15 mph72%30.07 "HgN/A
4:20 pm59 °FPassing clouds.16 mph72%30.07 "HgN/A
3:50 pm59 °FPassing clouds.16 mph72%30.07 "HgN/A
3:20 pm59 °FPassing clouds.16 mph68%30.07 "HgN/A
2:20 pm59 °FPassing clouds.21 mph68%30.07 "HgN/A
1:50 pm59 °FPassing clouds.18 mph72%30.07 "HgN/A
1:20 pm59 °FPassing clouds.20 mph68%30.07 "HgN/A
12:50 pm59 °FPassing clouds.21 mph68%30.07 "HgN/A
12:20 pm57 °FScattered showers. Passing clouds.21 mph72%30.07 "HgN/A
11:50 am57 °FScattered showers. Scattered clouds.20 mph72%30.07 "HgN/A
11:20 am57 °FScattered showers. Scattered clouds.21 mph77%30.07 "HgN/A
10:50 am57 °FPassing clouds.18 mph82%30.07 "HgN/A
10:20 am55 °FPassing clouds.20 mph88%30.07 "HgN/A
9:50 am54 °FRain showers. Scattered clouds.20 mph77%30.07 "HgN/A
9:20 am55 °FScattered clouds.17 mph82%30.07 "HgN/A
8:50 am54 °FScattered showers. Scattered clouds.16 mph82%30.07 "HgN/A
8:20 am52 °FScattered showers. Scattered clouds.14 mph88%30.07 "HgN/A
Weather by CustomWeather, © 2024

See weather overview